Eagle River, WI

5:43 PM CDT on March 22, 2017 (GMT -0500)
Eagle River Union

Weather History for KEGV - December, 2013

Change the Weather History Date:

Saturday, December 28, 2013

  Actual Average Record
Temperature  
Mean Temperature 26 °F -  
Max Temperature 32 °F 18 °F 44 °F (2003)
Min Temperature 20 °F 0 °F -18 °F (1993)
Degree Days  
Heating Degree Days 38    
Moisture  
Dew Point 28 °F    
Average Humidity 96    
Maximum Humidity 100    
Minimum Humidity 85    
Precipitation  
Precipitation 0.11 in - - ()
Sea Level Pressure  
Sea Level Pressure 29.79 in    
Wind  
Wind Speed 2 mph (NNE)    
Max Wind Speed 17 mph    
Max Gust Speed 26 mph    
Visibility 6 miles    
Events Snow    
Averages and records for this station are not official NWS values.
T = Trace of Precipitation, MM = Missing Value Source: NWS Daily Summary

Daily Weather History Graph

Daily Weather History Graph

Search for Another Location

Airport or City:

Trip Planner

Search our weather history database for the weather conditions in past years. The results will help you decide how hot, cold, wet, or windy it might be!

Date:

Astronomy

Dec. 28, 2013 Rise Set
Actual Time 7:38 AM CST 4:19 PM CST
Civil Twilight 7:03 AM CST 4:53 PM CST
Nautical Twilight 6:25 AM CST 5:31 PM CST
Astronomical Twilight 5:49 AM CST 6:08 PM CST
Moon 3:07 AM CST (12/28) 1:16 PM CST (12/28)
Length of Visible Light 9h 50m
Length of Day
8h 41m
Waning Crescent, 19% of the Moon is Illuminated
Dec 28
Waning Crescent
Jan 1
New
Jan 7
First Quarter
Jan 15
Full
Jan 23
Last Quarter

Hourly Weather History & Observations

Time (CST) Temp. Windchill Dew Point Humidity Pressure Visibility Wind Dir Wind Speed Gust Speed Precip Events Conditions
12:15 AM 29.7 °F - 25.9 °F 86% 29.87 in 10.0 mi Calm Calm - N/A   Overcast
12:35 AM 29.8 °F - 26.1 °F 86% 29.88 in 10.0 mi Calm Calm - N/A   Overcast
12:55 AM 30.0 °F - 26.1 °F 85% 29.90 in 10.0 mi Calm Calm - N/A   Overcast
1:15 AM 30.2 °F 24.3 °F 26.2 °F 85% 29.89 in 10.0 mi NW 5.8 mph - N/A   Overcast
1:35 AM 30.2 °F - 26.2 °F 85% 29.88 in 10.0 mi Calm Calm - N/A   Overcast
1:55 AM 30.2 °F - 26.2 °F 85% 29.87 in 10.0 mi Calm Calm - N/A   Overcast
2:15 AM 29.8 °F - 26.2 °F 86% 29.88 in 10.0 mi Calm Calm - N/A   Overcast
2:35 AM 29.8 °F - 26.2 °F 86% 29.89 in 10.0 mi Calm Calm - N/A   Overcast
2:55 AM 29.8 °F - 26.2 °F 86% 29.89 in 10.0 mi Calm Calm - N/A   Overcast
3:15 AM 29.7 °F - 26.4 °F 88% 29.88 in 10.0 mi Calm Calm - N/A   Overcast
3:35 AM 29.3 °F - 27.1 °F 92% 29.87 in 10.0 mi Calm Calm - N/A   Overcast
3:55 AM 29.1 °F - 28.4 °F 97% 29.87 in 10.0 mi Calm Calm - N/A   Overcast
4:15 AM 28.9 °F - 28.2 °F 97% 29.86 in 10.0 mi Calm Calm - N/A   Overcast
4:35 AM 28.8 °F - 28.2 °F 98% 29.87 in 10.0 mi Calm Calm - N/A   Overcast
4:55 AM 28.8 °F - 28.2 °F 98% 29.86 in 10.0 mi Calm Calm - N/A   Overcast
5:15 AM 28.4 °F - 28.0 °F 99% 29.86 in 10.0 mi Calm Calm - N/A   Overcast
5:35 AM 28.4 °F - 27.9 °F 98% 29.86 in 10.0 mi Calm Calm - N/A   Overcast
5:55 AM 28.2 °F - 27.9 °F 99% 29.87 in 10.0 mi Calm Calm - N/A   Overcast
6:15 AM 28.2 °F - 27.7 °F 98% 29.86 in 10.0 mi Calm Calm - N/A   Overcast
6:35 AM 27.9 °F - 27.7 °F 99% 29.85 in 10.0 mi Calm Calm - N/A   Overcast
6:55 AM 27.5 °F - 27.5 °F 100% 29.86 in 7.0 mi Calm Calm - N/A   Overcast
7:15 AM 27.5 °F - 27.5 °F 100% 29.86 in 7.0 mi Calm Calm - N/A   Overcast
7:35 AM 27.3 °F - 27.3 °F 100% 29.86 in 4.0 mi Calm Calm - N/A   Overcast
7:55 AM 27.0 °F - 27.0 °F 100% 29.85 in 2.0 mi Calm Calm - N/A   Overcast
8:15 AM 27.0 °F - 27.0 °F 100% 29.84 in 2.5 mi Calm Calm - N/A   Overcast
8:35 AM 27.0 °F - 27.0 °F 100% 29.83 in 1.5 mi Calm Calm - N/A   Overcast
8:55 AM 27.3 °F 19.9 °F 27.3 °F 100% 29.82 in 1.8 mi South 6.9 mph - N/A   Overcast
9:15 AM 27.5 °F 23.6 °F 27.5 °F 100% 29.82 in 2.5 mi South 3.5 mph - N/A   Overcast
9:35 AM 28.0 °F - 28.0 °F 100% 29.82 in 3.0 mi Calm Calm - N/A   Overcast
9:55 AM 28.0 °F 21.7 °F 28.0 °F 100% 29.84 in 3.0 mi SW 5.8 mph - N/A   Overcast
10:15 AM 28.4 °F - 28.4 °F 100% 29.83 in 4.0 mi Calm Calm - N/A   Overcast
10:35 AM 28.9 °F - 28.4 °F 98% 29.82 in 4.0 mi Calm Calm - N/A   Overcast
10:55 AM 29.3 °F - 28.8 °F 98% 29.81 in 5.0 mi Calm Calm - N/A   Overcast
11:15 AM 29.3 °F - 28.9 °F 99% 29.81 in 5.0 mi Calm Calm - N/A   Overcast
11:35 AM 30.2 °F - 29.3 °F 96% 29.79 in 5.0 mi Calm Calm - 0.01 in   Overcast
11:55 AM 30.9 °F - 29.8 °F 96% 29.79 in 5.0 mi Calm Calm - 0.01 in   Overcast
12:15 PM 31.1 °F - 30.2 °F 96% 29.78 in 5.0 mi Calm Calm - 0.02 in   Overcast
12:35 PM 32.0 °F - 30.9 °F 96% 29.76 in 5.0 mi Calm Calm - 0.02 in   Overcast
12:55 PM 32.0 °F - 30.9 °F 96% 29.75 in 5.0 mi Calm Calm - 0.02 in   Overcast
1:15 PM 32.0 °F - 31.1 °F 96% 29.74 in 5.0 mi Calm Calm - 0.01 in   Overcast
1:35 PM 32.0 °F - 30.9 °F 96% 29.74 in 5.0 mi Calm Calm - 0.02 in   Overcast
1:55 PM 32.7 °F - 30.7 °F 92% 29.73 in 5.0 mi Calm Calm - 0.02 in   Overcast
2:15 PM 32.9 °F - 31.1 °F 93% 29.72 in 5.0 mi Calm Calm - N/A   Overcast
2:35 PM 32.7 °F - 31.1 °F 94% 29.71 in 7.0 mi Calm Calm - 0.02 in   Overcast
2:55 PM 32.5 °F - 31.3 °F 95% 29.70 in 5.0 mi Calm Calm - 0.03 in   Overcast
3:15 PM 32.0 °F - 31.1 °F 96% 29.69 in 5.0 mi Calm Calm - 0.02 in   Overcast
3:35 PM 32.0 °F - 31.3 °F 97% 29.69 in 5.0 mi Calm Calm - 0.02 in   Overcast
3:55 PM 32.0 °F - 31.1 °F 96% 29.70 in 4.0 mi Calm Calm - 0.03 in   Overcast
4:15 PM 31.6 °F - 31.1 °F 98% 29.71 in 5.0 mi Calm Calm - N/A   Overcast
4:35 PM 31.5 °F - 30.9 °F 98% 29.72 in 4.0 mi Calm Calm - N/A   Overcast
4:55 PM 32.0 °F - 31.5 °F 98% 29.71 in 7.0 mi Calm Calm - N/A   Overcast
5:15 PM 30.2 °F - 29.8 °F 99% 29.70 in 7.0 mi Calm Calm - N/A   Mostly Cloudy
5:35 PM 30.2 °F - 30.0 °F 99% 29.72 in 5.0 mi Calm Calm - N/A   Mostly Cloudy
5:55 PM 30.9 °F - 30.7 °F 99% 29.72 in 7.0 mi Calm Calm - N/A   Overcast
6:15 PM 30.2 °F - 30.0 °F 99% 29.72 in 7.0 mi Calm Calm - N/A   Overcast
6:35 PM 31.8 °F - 31.3 °F 98% 29.72 in 7.0 mi Calm Calm - N/A   Overcast
6:55 PM 31.8 °F - 31.1 °F 97% 29.72 in 7.0 mi Calm Calm - N/A   Overcast
7:15 PM 32.0 °F - 31.5 °F 98% 29.71 in 7.0 mi Calm Calm - N/A   Overcast
7:35 PM 32.0 °F 26.4 °F 31.6 °F 99% 29.70 in 10.0 mi ENE 5.8 mph - N/A   Overcast
7:55 PM 32.0 °F 26.4 °F 31.8 °F 99% 29.70 in 10.0 mi NNE 5.8 mph - N/A   Overcast
8:15 PM 32.0 °F - 32.0 °F 100% 29.70 in 10.0 mi Calm Calm - N/A   Overcast
8:35 PM 32.0 °F - 31.8 °F 99% 29.70 in 10.0 mi Calm Calm - N/A   Overcast
8:55 PM 32.0 °F 21.6 °F 32.0 °F 100% 29.71 in 5.0 mi NE 15.0 mph - N/A   Overcast
9:15 PM 29.8 °F 19.3 °F 29.7 °F 99% 29.71 in 4.0 mi NNE 13.8 mph - N/A   Overcast
9:35 PM 29.3 °F 18.6 °F 28.8 °F 98% 29.71 in 5.0 mi NNE 13.8 mph 20.7 mph N/A   Overcast
9:55 PM 28.6 °F 18.2 °F 28.0 °F 98% 29.72 in 3.0 mi NNE 12.7 mph 16.1 mph N/A Snow Light Snow
10:15 PM 27.0 °F 15.2 °F 26.1 °F 96% 29.74 in 4.0 mi NE 15.0 mph 21.9 mph N/A   Overcast
10:35 PM 25.7 °F 14.0 °F 24.6 °F 96% 29.74 in 5.0 mi NNE 13.8 mph 23.0 mph N/A   Overcast
10:55 PM 23.9 °F 11.2 °F 22.6 °F 95% 29.75 in 3.0 mi NNE 15.0 mph 24.2 mph N/A   Overcast
11:15 PM 22.5 °F 8.9 °F 21.2 °F 95% 29.77 in 3.0 mi NNE 16.1 mph 21.9 mph N/A   Overcast
11:35 PM 21.0 °F 6.6 °F 19.4 °F 93% 29.77 in 4.0 mi North 17.3 mph 26.5 mph N/A   Overcast
11:55 PM 20.3 °F 5.7 °F 18.5 °F 93% 29.78 in 5.0 mi NNE 17.3 mph 25.3 mph N/A   Overcast